[ ตารางข้อมูล ] [ Min-Max ] [ วันนี้4 ] [ วันนี้2 ] [ เทียบ3วัน A ] [ เทียบ4วัน B ]   

วันนี้2   [ ◀ ช่วงเก่ากว่า ] [ ช่วงที่ 324 ] [ ช่วงใหม่กว่า ▶ ] [ ล่าสุด ]    [ 3 ชั่วโมง ] [ 6 ชั่วโมง ] [ 12 ชั่วโมง ] [ 24 ชั่วโมง ]   วันนี้2

อุณภูมิตู้ Knockdown4529  ราย 3 ชั่วโมง  ที่วัดได้ ในช่วงวันเวลา 30/03/2026 (15:06) ถึง 30/03/2026 (18:06) 
ความชื้นในตู้ Knockdown4529  ราย 3 ชั่วโมง  ที่วัดได้ ในช่วงวันเวลา 30/03/2026 (15:06) ถึง 30/03/2026 (18:06) 

 
DS18B20SHTC3 
IDDate d/m/Y & Timedata1
สูง
data2
ต่ำ
data3
นอก
temp
pcb
hum
pcb
Time
 7264  30/03/2026 18:02:16  30.8  30.8  29.4  30.8  71.6  18:02 
 7263  30/03/2026 17:57:34  30.9  30.8  29.4  30.8  71.5  17:57 
 7262  30/03/2026 17:52:52  30.9  30.8  29.5  30.8  71.4  17:52 
 7261  30/03/2026 17:48:10  30.9  30.9  29.5  30.7  71.5  17:48 
 7260  30/03/2026 17:43:28  31.0  30.9  29.5  31.0  71.3  17:43 
 7259  30/03/2026 17:38:47  31.0  30.9  29.6  30.8  71.1  17:38 
 7258  30/03/2026 17:34:05  31.1  30.9  29.7  30.8  71.0  17:34 
 7257  30/03/2026 17:29:24  31.1  31.0  29.6  30.8  71.0  17:29 
 7256  30/03/2026 17:24:42  31.1  31.0  29.7  30.9  71.0  17:24 
 7255  30/03/2026 17:20:00  31.1  31.0  29.7  31.1  71.0  17:20 
 7254  30/03/2026 17:15:18  31.1  31.1  29.7  31.0  71.0  17:15 
 7253  30/03/2026 17:10:36  31.2  31.1  29.8  31.1  70.9  17:10 
 7252  30/03/2026 17:05:55  31.2  31.1  29.8  31.1  70.8  17:05 
 7251  30/03/2026 17:01:13  31.2  31.1  29.7  31.1  70.9  17:01 
 7250  30/03/2026 16:56:31  31.2  31.1  29.7  31.1  70.7  16:56 
 7249  30/03/2026 16:51:49  31.2  31.1  29.7  31.1  70.8  16:51 
 7248  30/03/2026 16:47:07  31.2  31.1  29.8  31.1  70.7  16:47 
 7247  30/03/2026 16:42:26  31.3  31.2  29.9  31.4  70.6  16:42 
 7246  30/03/2026 16:37:44  31.4  31.2  30.0  31.1  70.5  16:37 
 7245  30/03/2026 16:33:01  31.4  31.2  30.0  31.1  70.5  16:33 
 7244  30/03/2026 16:28:19  31.4  31.2  30.0  31.4  70.6  16:28 
 7243  30/03/2026 16:23:38  31.4  31.2  30.0  31.1  70.5  16:23 
 7242  30/03/2026 16:18:56  31.5  31.3  30.0  31.4  70.5  16:18 
 7241  30/03/2026 16:14:14  31.5  31.3  29.9  31.6  70.5  16:14 

Data every 5 minute.


ใช้เวลาประมวลผล 0.00227 วินาที